Wetbulb
56.00 55.18 55.16 54.43 54.55 54.78 54.97 55.66 57.06 57.63 58.04 58.16 59.08 59.46 59.14 58.89 58.93 58.90 58.49 57.95 57.92 57.42
57.36 56.08 55.65 55.45 55.79 55.51 55.64 56.19 56.62 57.57 57.87 58.65 58.99 59.25 59.03 58.55 58.85 58.92 59.33 59.22 59.16 58.68
58.08 57.29 57.08 57.36 55.59 55.59 55.53 55.61 56.04 56.87 57.70 57.88 58.58 59.40 59.21 58.66 58.94 59.07 59.50 59.83 59.42 58.67
58.45 58.00 57.02 57.34 57.67 56.60 56.07 55.70 55.62 56.27 56.72 57.96 58.27 58.63 59.10 59.31 58.97 59.15 58.84 59.17 58.26 58.24
58.67 58.87 58.43 57.63 57.67 58.12 56.83 56.38 55.94 56.14 56.06 57.04 58.60 58.77 58.46 58.59 58.89 58.35 57.91 57.89 57.45 57.75
58.88 59.06 59.05 59.06 59.04 58.65 58.08 57.34 57.00 56.42 56.24 57.72 58.26 58.37 58.84 58.84 58.27 58.35 58.24 57.67 57.30 57.29
58.24 58.99 59.16 59.95 60.17 60.20 59.20 58.76 57.95 57.58 58.16 58.09 58.63 59.25 59.22 58.95 57.99 57.54 57.63 57.59 57.45 56.99
59.21 59.60 59.30 59.53 59.72 60.41 60.43 59.86 59.45 59.13 58.79 58.90 59.05 59.16 58.51 58.38 57.65 57.10 56.22 56.01 54.99 48.14
60.80 60.55 59.58 59.36 59.62 59.76 59.71 59.76 59.72 58.99 58.85 58.35 59.05 50.26 47.20 52.53 56.14 55.59 53.58 46.56 40.57 39.22
60.31 60.24 60.28 60.62 60.21 59.51 58.67 58.93 58.59 58.61 58.63 58.21 57.80 42.40 42.57 42.07 49.97 46.23 42.23 39.67 37.71 36.33
59.80 59.83 59.87 59.75 59.44 59.34 59.29 58.50 57.96 57.90 57.40 48.99 42.21 38.91 38.42 38.01 38.79 36.72 36.54 36.65 35.24 33.74
59.73 59.19 58.89 58.54 58.31 58.25 57.93 57.73 52.00 46.76 44.00 39.58 37.14 37.05 37.08 36.79 34.94 33.80 33.73 33.83 33.62 33.22
60.21 59.33 58.13 57.62 56.66 50.24 45.29 40.71 38.70 36.49 36.33 35.68 35.14 35.66 36.64 35.24 33.22 31.14 30.61 30.19 30.48 31.26
54.94 53.80 49.56 45.17 43.02 41.26 38.03 35.54 33.83 32.54 32.69 32.89 33.41 34.00 34.62 34.19 31.87 30.64 29.22 28.61 28.00 29.28
MSLP
1009.87 1010.46 1011.03 1011.47 1011.81 1012.31 1012.67 1013.20 1013.92 1014.35 1014.75 1015.20 1015.28 1015.36 1015.90 1016.53 1016.93 1017.45 1017.58 1017.81 1017.99 1018.24
1009.21 1009.97 1010.42 1011.05 1011.47 1012.06 1012.60 1013.21 1013.70 1014.08 1014.61 1014.82 1014.88 1015.24 1015.61 1015.96 1016.38 1016.71 1016.88 1017.16 1017.49 1017.61
1008.42 1009.17 1009.77 1010.33 1010.91 1011.54 1012.11 1012.70 1013.14 1013.56 1013.77 1014.03 1014.53 1014.76 1015.13 1015.51 1015.73 1016.04 1016.24 1016.46 1016.68 1016.78
1007.67 1008.39 1009.09 1009.47 1010.11 1010.72 1011.32 1011.81 1012.32 1012.66 1013.02 1013.44 1013.93 1014.11 1014.46 1014.78 1015.02 1015.23 1015.44 1015.62 1015.95 1016.15
1007.11 1007.66 1008.23 1008.69 1009.20 1009.91 1010.48 1010.92 1011.48 1011.94 1012.33 1012.67 1012.95 1013.40 1013.81 1014.14 1014.31 1014.54 1014.88 1014.89 1015.23 1015.34
1005.80 1006.42 1006.98 1007.57 1008.33 1008.99 1009.54 1010.00 1010.58 1011.09 1011.32 1011.51 1011.93 1012.51 1012.88 1013.24 1013.56 1013.80 1013.98 1014.17 1014.44 1014.53
1004.86 1005.39 1005.93 1006.51 1007.19 1007.82 1008.52 1008.96 1009.56 1009.94 1010.27 1010.79 1011.18 1011.65 1012.00 1012.31 1012.71 1013.01 1013.17 1013.40 1013.62 1013.89
1003.77 1004.54 1005.28 1005.86 1006.38 1006.90 1007.43 1008.02 1008.57 1009.06 1009.47 1009.93 1010.45 1010.82 1011.28 1011.51 1011.85 1012.17 1012.48 1012.69 1013.14 1013.92
1002.61 1003.54 1004.25 1004.80 1005.38 1006.00 1006.49 1007.06 1007.64 1008.05 1008.58 1009.14 1009.56 1009.96 1010.32 1010.72 1011.22 1011.60 1012.18 1013.23 1014.32 1014.74
1001.56 1002.11 1002.78 1003.78 1004.42 1004.90 1005.47 1006.15 1006.87 1007.45 1007.96 1008.49 1009.06 1009.81 1009.94 1010.32 1011.08 1012.04 1012.99 1013.81 1014.70 1015.42
1000.81 1001.52 1002.24 1002.81 1003.50 1004.23 1004.88 1005.47 1006.28 1006.98 1007.46 1008.78 1010.05 1010.15 1010.50 1011.09 1012.13 1013.25 1013.97 1014.47 1015.25 1015.62
1000.05 1000.97 1001.91 1002.51 1003.15 1004.04 1004.85 1005.64 1006.41 1007.47 1008.40 1009.45 1010.80 1011.11 1011.21 1011.81 1013.05 1014.27 1014.77 1015.42 1015.78 1016.22
999.55 1000.46 1001.38 1002.30 1003.23 1004.41 1005.20 1006.60 1007.84 1009.13 1010.22 1010.92 1011.46 1011.95 1011.78 1012.54 1013.62 1014.49 1015.56 1016.54 1017.07 1017.44
999.68 1000.67 1002.09 1003.38 1004.62 1005.65 1006.86 1008.15 1009.32 1010.26 1011.62 1012.22 1012.60 1013.09 1013.46 1013.59 1014.30 1015.08 1016.01 1017.16 1017.89 1018.43
Wind_Speed
17 11 12 15 11 10 10 10 9 8 8 12 13 8 7 5 5 6 6 7 6 5
16 17 15 17 13 11 10 9 11 11 12 10 8 7 7 6 8 7 7 8 9 7
16 17 16 14 17 14 13 12 13 12 12 11 12 10 10 7 7 9 8 7 9 9
16 18 18 15 15 17 15 15 14 14 12 15 15 11 10 11 11 11 11 10 10 10
16 17 18 18 18 18 18 16 16 16 17 15 14 13 14 14 12 13 11 10 9 10
18 18 18 18 18 19 19 19 18 19 20 16 14 13 12 13 12 12 12 10 10 11
18 17 16 16 17 18 19 19 19 20 18 18 14 15 15 14 12 11 10 11 11 10
18 18 17 16 15 15 15 17 18 17 17 16 15 11 12 11 12 12 10 9 3 5
18 18 18 18 18 17 15 15 14 15 14 15 11 14 17 13 7 7 3 6 6 7
15 17 17 17 17 18 18 15 15 14 14 14 11 5 5 6 4 6 6 8 7 7
14 16 16 16 16 15 14 16 14 14 11 8 6 11 15 15 11 10 9 9 8 9
14 14 13 13 14 10 10 10 4 8 9 11 9 12 15 15 11 11 10 9 10 11
12 13 13 12 11 6 12 11 10 12 11 12 10 12 15 13 9 12 10 10 12 17
8 10 14 13 11 11 13 13 13 15 12 12 11 11 15 15 9 9 10 9 8 8
Wind_Direction
182 179 181 183 181 186 191 187 189 189 191 216 208 189 177 173 178 189 197 212 209 218
182 186 192 189 188 185 187 191 189 195 206 209 197 193 188 188 193 199 204 209 218 217
182 185 193 187 197 189 196 202 197 200 200 208 216 200 195 204 206 208 215 210 217 230
189 185 194 192 191 198 199 199 205 204 212 210 210 213 213 210 209 215 221 224 224 227
195 194 197 201 196 197 201 202 207 211 222 224 202 207 218 220 218 223 229 226 227 228
194 198 197 197 199 199 206 202 207 211 220 223 218 214 218 221 222 224 225 226 227 232
200 202 202 199 200 200 202 205 203 215 215 219 217 219 217 217 222 224 228 231 233 233
195 198 199 206 207 205 201 204 210 207 213 213 218 217 222 223 223 224 226 226 242 37
188 195 200 202 202 204 205 205 207 210 211 216 220 215 212 213 212 222 218 123 82 71
196 197 196 200 200 201 202 197 205 210 213 215 213 107 146 158 88 97 94 106 106 88
200 200 202 199 204 204 200 199 202 208 208 111 74 100 96 89 88 84 83 90 103 103
199 199 200 207 201 196 200 196 132 82 88 98 90 93 99 102 93 92 83 86 83 88
194 193 195 198 192 64 80 86 82 76 72 85 92 90 96 104 116 103 96 79 80 81
67 84 87 85 82 92 94 90 83 82 70 66 65 75 89 93 101 110 106 100 91 78